Location: *
(47.2474°S, 175.4149°W)
Time: 17:41:49
(UTC+00:00)

Daily predictions for brighter satellites

Satellite Brightness Start Highest point End
(mag) Time Altitude Azimuth Time Altitude Azimuth Time Altitude Azimuth
CZ-4C R/B 3.8 14:10:51 39° ENE 14:10:51 39° ENE 14:16:49 10° SE
SL-16 R/B 3.6 14:08:58 10° SSE 14:13:18 43° SE 14:13:18 43° SE
SL-16 R/B 3.3 14:36:21 41° SE 14:36:21 41° SE 14:40:03 10° SSE
USA 215 3.4 14:31:49 10° ENE 14:38:08 69° SE 14:38:08 69° SE
BREEZE-M DEB (TANK) 3.9 14:39:40 72° SE 14:39:40 72° SE 14:55:53 10° ENE
ATLAS 2AS CENTAUR R/B 4.1 14:40:58 23° SSW 14:40:58 23° SSW 14:45:37 10° SSE
Cosmos 2360 Rocket 3.4 14:41:47 37° E 14:41:47 37° E 14:46:42 10° SE
Cosmos 2322 Rocket 3.0 14:46:00 47° SE 14:46:00 47° SE 14:50:04 10° SSE
Cosmos 1980 Rocket 3.8 14:51:00 25° S 14:51:00 25° S 14:53:56 10° SSE
H-2A R/B 4.0 14:50:08 10° SE 14:54:04 27° E 14:54:09 27° E
ISS -0.6 15:06:49 15° ESE 15:06:49 15° ESE 15:07:33 10° ESE
Meteor 1-11 Rocket 4.0 15:07:02 64° S 15:07:02 64° S 15:11:54 10° S
Cosmos 2034 Rocket 4.2 15:11:44 59° SSW 15:11:44 59° SSW 15:16:58 10° S
Cosmos 1844 4.2 15:07:34 10° SSW 15:13:15 57° ESE 15:18:50 10° NE
SL-8 R/B 3.9 15:30:32 70° E 15:30:32 70° E 15:34:54 10° ESE
Cosmos 1371 Rocket 4.4 15:26:21 10° SSW 15:31:38 62° ESE 15:36:54 10° NE
STARLINK-1096 4.4 15:34:33 49° SE 15:34:33 49° SE 15:38:20 10° E
BREEZE M DEB (TANK) 3.9 15:34:30 37° N 15:35:32 42° NE 15:49:47 10° ESE
Cosmos 1066 Rocket 4.0 15:30:07 10° SSW 15:35:34 74° W 15:35:34 74° W
Meteor 1-28 Rocket 4.3 15:34:04 10° SSE 15:36:47 42° SE 15:36:47 42° SE
STARLINK-1079 4.3 15:39:17 52° SSE 15:39:17 52° SSE 15:43:18 10° E
Meteor 1-23 Rocket 4.4 15:35:00 10° SSW 15:39:31 52° SW 15:39:31 52° SW
Cosmos 2219 Rocket 3.4 15:37:01 14° N 15:41:25 39° ENE 15:46:40 10° SE
Cosmos 2237 4.1 15:41:02 66° NW 15:41:50 80° WSW 15:47:39 10° SSE
Cosmos 1975 4.2 15:39:48 19° NNE 15:42:17 39° E 15:46:12 10° SSE
CZ-4B R/B 4.1 15:40:08 10° SE 15:42:36 19° E 15:45:05 10° NE
Cosmos 2112 Rocket 4.2 15:41:41 46° N 15:43:18 74° ENE 15:48:44 10° SSE
STARLINK-1116 4.1 15:44:05 54° SSE 15:44:10 55° SSE 15:48:19 10° E
Cosmos 2279 Rocket 4.3 15:41:15 10° N 15:47:28 66° E 15:53:45 10° SSE
SL-08 R/B 3.3 15:43:05 10° S 15:47:27 64° SW 15:47:27 64° SW
Cosmos 1908 Rocket 3.7 15:49:23 63° SSW 15:49:23 63° SSW 15:53:16 10° S
Cosmos 1844 Rocket 2.5 15:47:17 27° SW 15:50:21 66° WNW 15:55:54 10° NNE
COSMOS 2428 3.7 15:47:24 11° N 15:52:30 45° ENE 15:57:58 10° SE
Cosmos 1627 Rocket 4.4 15:46:09 10° SSW 15:52:32 65° W 15:58:45 10° N
Cosmos 2322 3.8 15:50:49 33° NNW 15:53:28 75° ENE 15:59:15 10° SSE
Cosmos 2195 Rocket 4.4 15:48:02 10° SSW 15:54:06 57° W 15:57:32 26° NNW
STARLINK-1094 4.0 15:53:39 55° SSW 15:54:10 60° SSE 15:58:20 10° ENE
Landsat 5 3.6 15:50:29 10° SSE 15:54:51 73° ENE 15:56:07 43° N
Cosmos 158 Rocket 3.8 15:54:28 45° NNW 15:56:00 83° ENE 16:00:58 10° SSE
ATLAS CENTAUR R/B 2.8 15:57:28 26° SSW 15:57:28 26° SSW 16:00:29 10° SSE
Cosmos 2333 4.4 15:54:39 28° NNW 15:57:44 75° ENE 16:03:34 10° SSE
USA 229 DEB 3.6 15:51:06 10° SW 15:58:06 89° SE 16:04:41 10° NE
USA 229 3.6 15:51:13 10° SW 15:58:13 88° SE 16:04:48 10° NE
SL-16 R/B 3.5 15:53:10 10° S 15:58:24 29° WSW 15:58:24 29° WSW
CZ-4C R/B 2.9 15:56:04 41° WNW 15:58:47 62° SW 16:05:32 10° SE
STARLINK-1117 4.0 15:58:27 52° SSW 15:59:11 63° SSE 16:03:22 10° ENE
Intercosmos 24 4.1 16:02:37 57° SW 16:02:37 57° SW 16:05:58 10° S
STARLINK-1078 3.9 16:03:13 49° SW 16:04:09 66° SSE 16:08:21 10° ENE
COBE Rocket 4.1 16:00:11 10° SSE 16:05:29 81° ENE 16:10:38 10° N
MOS 1-B 4.3 16:00:17 10° NNE 16:06:06 89° E 16:12:01 10° SSW
Cosmos 2056 Rocket 3.5 16:01:06 10° SSW 16:06:35 82° WNW 16:12:03 10° NNE
ERBS 2.7 16:07:06 57° S 16:07:06 57° S 16:10:06 10° SE
SJ-12 3.8 16:02:42 10° N 16:06:48 76° WNW 16:10:58 10° SSW
Cosmos 1743 2.9 16:07:20 56° SW 16:07:20 56° SW 16:10:49 10° S
NOSS 3-1 (A) 3.6 16:01:08 10° SW 16:07:48 73° SE 16:13:25 10° NE
STARLINK-1108 3.8 16:08:01 45° SW 16:09:10 70° SSE 16:13:22 10° ENE
ALOS 2.2 16:04:47 10° N 16:09:27 65° WNW 16:14:12 10° SSW
STARLINK-1071 3.7 16:12:48 42° SW 16:14:08 74° SSE 16:18:20 10° ENE
Sich 1 Rocket 3.7 16:10:50 10° N 16:15:22 83° E 16:20:01 10° S
METEOR-M 4.1 16:10:46 10° N 16:16:06 61° W 16:21:30 10° SSW
STARLINK-1138 4.4 16:15:29 29° NNW 16:17:09 46° NE 16:21:12 10° ESE
Okean 2 Rocket 3.9 16:13:48 10° N 16:18:15 55° E 16:22:44 10° SSE
FENGYUN 3A 3.7 16:13:16 10° N 16:18:34 56° W 16:23:58 10° SSW
SL-16 R/B 3.4 16:18:14 24° WSW 16:19:00 24° SW 16:23:39 10° S
STARLINK-1110 3.7 16:17:35 38° SW 16:19:07 78° SSE 16:23:20 10° ENE
PSLV R/B 3.7 16:15:19 10° N 16:19:10 62° WNW 16:23:00 10° SSW
Cosmos 1842 3.2 16:15:16 10° S 16:19:15 90° WNW 16:23:10 10° N
Cosmos 1544 3.2 16:18:18 14° N 16:21:25 80° E 16:25:13 10° SSE
USA 215 3.5 16:15:19 10° NNE 16:21:35 46° NW 16:25:30 23° WSW
STARLINK-1143 4.3 16:20:14 28° NNW 16:22:05 49° NE 16:26:11 10° ESE
Okean O Rocket 2.1 16:18:08 10° NNE 16:22:36 65° ESE 16:27:06 10° S
SAR-Lupe-4 3.5 16:19:43 10° S 16:23:24 71° WSW 16:24:50 35° NNW
STARLINK-1124 3.6 16:22:22 34° WSW 16:24:07 82° SSE 16:28:20 10° ENE
CZ-4B DEB 4.2 16:19:24 10° N 16:24:59 72° WNW 16:30:39 10° SSW
Cosmos 2360 Rocket 2.7 16:23:35 32° W 16:25:26 41° SW 16:30:51 10° SSE
STARLINK-1241 4.2 16:25:04 27° NNW 16:27:05 54° NE 16:31:13 10° ESE
Cosmos 1975 Rocket 3.1 16:23:31 10° SSW 16:27:49 51° W 16:32:03 10° N
Cosmos 2322 Rocket 3.4 16:27:50 22° WSW 16:29:00 24° SW 16:33:36 10° S
STARLINK-1122 3.6 16:27:08 31° WSW 16:29:06 87° SE 16:33:18 10° ENE
STARLINK-1066 3.1 16:29:48 50° NW 16:29:49 50° NW 16:32:52 10° NE
H-2A R/B 2.7 16:25:52 10° S 16:30:06 37° WSW 16:31:14 32° W
STARLINK-1081 3.1 16:30:11 50° NW 16:30:16 50° NW 16:33:21 10° NE
STARLINK-1070 3.1 16:30:37 49° NW 16:30:43 50° NW 16:33:48 10° NE
STARLINK-1069 3.1 16:31:06 49° NW 16:31:11 49° NW 16:34:14 10° NE
STARLINK-1085 3.1 16:31:32 48° NW 16:31:38 48° NW 16:34:41 10° NE
STARLINK-1239 4.1 16:29:50 25° NW 16:32:02 58° NE 16:36:12 10° ESE
STARLINK-1086 3.1 16:31:55 48° NW 16:32:04 48° NW 16:35:09 10° NE
STARLINK-1095 3.1 16:32:21 47° NW 16:32:31 48° NW 16:35:36 10° NE
Cosmos 2333 Rocket 2.2 16:27:44 13° NNW 16:32:55 83° WSW 16:38:47 10° SSE
STARLINK-1077 3.1 16:32:47 47° NW 16:32:58 47° NW 16:36:03 10° NE
STARLINK-1075 3.2 16:33:13 46° NW 16:33:25 47° NW 16:36:29 10° NE
STARLINK-1093 3.2 16:33:41 46° NW 16:33:52 46° NW 16:36:54 10° NE
STARLINK-1126 3.6 16:31:55 28° WSW 16:34:03 88° NW 16:38:17 10° ENE
STARLINK-1074 3.2 16:34:08 45° NW 16:34:20 46° NW 16:37:21 10° NE
STARLINK-1087 3.2 16:34:31 44° NW 16:34:46 46° NW 16:37:50 10° NE
STARLINK-1228 2.9 16:34:29 50° WSW 16:34:51 55° SSW 16:37:45 10° ESE
STARLINK-1088 3.2 16:34:58 44° NW 16:35:13 45° NW 16:38:17 10° NE
STARLINK-1115 3.2 16:35:26 44° NW 16:35:40 45° NW 16:38:41 10° NE
Radarsat Rocket 4.2 16:29:45 10° NNE 16:35:56 89° E 16:43:00 10° SSW
STARLINK-1076 3.2 16:35:52 43° NW 16:36:08 44° NW 16:39:08 10° NE
STARLINK-1119 4.5 16:33:38 21° SW 16:36:08 45° SSE 16:40:13 10° E
NOSS 3-1 (C) 3.4 16:30:07 10° SW 16:36:18 51° WNW 16:41:37 10° NNE
STARLINK-1092 3.2 16:36:18 42° NW 16:36:34 44° NW 16:39:35 10° NE
STARLINK-1080 3.3 16:36:41 42° WNW 16:37:00 44° NW 16:40:03 10° NE
STARLINK-1240 4.0 16:34:38 24° NW 16:37:01 62° NE 16:41:12 10° ESE
STARLINK-1090 3.3 16:37:07 41° WNW 16:37:28 43° NW 16:40:30 10° NE
STARLINK-1089 3.3 16:37:33 41° WNW 16:37:55 43° NW 16:40:57 10° NE
STARLINK-1107 3.3 16:37:59 40° WNW 16:38:22 43° NW 16:41:24 10° NE
ERS-2 4.4 16:37:05 10° SSW 16:37:40 12° SW 16:37:40 12° SW
STARLINK-1082 3.6 16:36:43 26° WSW 16:39:03 83° NNW 16:43:15 10° ENE
BREEZE M DEB (TANK) 4.2 16:36:58 14° NNW 16:39:48 43° NE 16:49:03 10° ESE
NOAA 6 4.0 16:34:58 10° N 16:40:10 73° WNW 16:45:28 10° SSW
SAR-Lupe-1 4.3 16:37:12 10° S 16:40:46 49° WSW 16:42:53 21° NW
STARLINK-1114 4.4 16:38:25 19° SW 16:41:09 46° SSE 16:45:14 10° E
ISS -2.8 16:39:48 24° SW 16:41:30 43° S 16:44:50 10° E
STARLINK-1216 3.9 16:39:25 22° NW 16:42:00 67° NNE 16:46:12 10° ESE
Cosmos 1680 Rocket 4.2 16:39:47 25° WNW 16:42:06 35° WSW 16:47:03 10° S
CZ-4C R/B 4.3 16:39:14 10° SSW 16:42:02 24° WSW 16:42:02 24° WSW
Cosmos 1452 Rocket 3.7 16:36:54 10° SSW 16:42:16 77° ESE 16:47:34 10° NNE
STARLINK-1233 2.9 16:42:40 37° W 16:43:43 66° SSW 16:46:55 10° ESE
STARLINK-1100 3.6 16:41:29 23° WSW 16:44:01 78° NNW 16:48:13 10° NE
STARLINK-1212 3.0 16:43:05 36° W 16:44:10 65° SSW 16:47:21 10° ESE
STARLINK-1105 3.0 16:43:32 36° W 16:44:38 65° SSW 16:47:48 10° ESE
STARLINK-1206 3.0 16:43:56 35° W 16:45:04 65° SSW 16:48:16 10° ESE
Cosmos 2237 Rocket 3.3 16:39:58 10° N 16:45:24 47° ENE 16:50:54 10° SE
STARLINK-1247 3.0 16:44:22 35° W 16:45:31 64° SSW 16:48:42 10° ESE
STARLINK-1227 3.0 16:44:50 34° W 16:45:59 64° SSW 16:49:09 10° ESE
STARLINK-1130 (DARKSAT) 4.4 16:43:13 18° SW 16:46:09 48° SSE 16:50:14 10° E
STARLINK-1218 3.0 16:45:15 34° W 16:46:25 63° SSW 16:49:37 10° ESE
STARLINK-1226 3.0 16:45:41 34° W 16:46:52 63° SSW 16:50:04 10° ESE
STARLINK-1237 3.8 16:44:11 21° NW 16:46:57 72° NNE 16:51:11 10° ESE
STARLINK-1254 3.0 16:46:08 33° W 16:47:20 62° SSW 16:50:31 10° ESE
STARLINK-1215 3.0 16:46:32 33° W 16:47:46 62° SSW 16:50:57 10° ESE
STARLINK-1231 3.0 16:46:58 32° W 16:48:13 62° SSW 16:51:25 10° ESE
CZ-3A R/B 4.2 16:44:04 15° WSW 16:48:59 47° S 16:57:33 10° E
STARLINK-1083 3.6 16:46:15 21° WSW 16:48:59 73° NNW 16:53:10 10° NE
STARLINK-1232 3.0 16:47:50 31° W 16:49:08 61° SSW 16:52:19 10° ESE
STARLINK-1217 3.0 16:48:17 31° W 16:49:35 61° SSW 16:52:46 10° ESE
STARLINK-1208 3.0 16:48:44 31° W 16:50:03 60° SSW 16:53:13 10° ESE
STARLINK-1229 3.1 16:49:07 30° W 16:50:28 60° SSW 16:53:39 10° ESE
STARLINK-1271 3.1 16:49:35 30° W 16:50:56 59° SSW 16:54:07 10° ESE
STARLINK-1084 4.3 16:48:00 16° SW 16:51:10 50° SSE 16:55:16 10° E
STARLINK-67 3.6 16:50:29 27° SW 16:51:11 31° SSW 16:53:37 10° SE
STARLINK-1270 3.1 16:50:01 29° W 16:51:23 59° SSW 16:54:34 10° ESE
STARLINK-1234 3.3 16:50:12 29° WSW 16:51:25 47° SSW 16:54:28 10° SE
STARLINK-1154 3.1 16:50:26 29° W 16:51:49 59° SSW 16:55:00 10° ESE
STARLINK-1202 3.7 16:48:57 19° NW 16:51:55 77° NNE 16:56:09 10° ESE
Cosmos 2266 Rocket 3.9 16:46:07 10° SSW 16:52:18 73° W 16:58:32 10° N
STARLINK-1197 3.1 16:51:18 28° W 16:52:44 58° SSW 16:55:55 10° ESE
STARLINK-1189 3.1 16:51:44 28° W 16:53:11 57° SSW 16:56:22 10° ESE
Cosmos 2278 Rocket 2.2 16:47:35 10° SSW 16:53:21 88° WNW 16:59:02 10° NNE
STARLINK-1198 3.1 16:52:10 27° W 16:53:38 57° SSW 16:56:48 10° ESE
STARLINK-1125 3.6 16:51:02 19° WSW 16:53:56 68° NNW 16:58:06 10° NE
STARLINK-1188 3.1 16:52:36 27° W 16:54:05 57° SSW 16:57:16 10° ESE
STARLINK-1209 3.4 16:53:10 26° WSW 16:54:29 44° SSW 16:57:28 10° SE
CZ-4B R/B 3.3 16:48:56 10° N 16:54:36 65° WNW 17:00:17 10° SSW
STARLINK-1235 3.4 16:53:22 26° W 16:54:48 48° SSW 16:57:54 10° SE
STARLINK-1187 3.2 16:53:44 26° W 16:55:12 51° SSW 16:58:19 10° SE
STARLINK-1203 3.7 16:52:44 18° WNW 16:55:48 86° NNE 17:00:06 10° ESE
STARLINK-1199 3.2 16:54:32 26° W 16:56:06 55° SSW 16:59:15 10° ESE
STARLINK-1098 4.3 16:52:48 15° SW 16:56:11 52° SSE 17:00:18 10° E
STARLINK-1191 3.2 16:54:58 25° W 16:56:33 55° SSW 16:59:42 10° ESE
STARLINK-1210 3.2 16:55:25 25° W 16:57:00 54° SSW 17:00:09 10° ESE
STARLINK-1221 3.2 16:55:50 25° W 16:57:26 54° SSW 17:00:34 10° ESE
STARLINK-1219 3.2 16:56:16 24° W 16:57:54 54° SSW 17:01:02 10° ESE
STARLINK-1222 3.2 16:56:42 24° W 16:58:21 53° SSW 17:01:29 10° ESE
STARLINK-1211 3.2 16:57:08 24° W 16:58:48 53° SSW 17:01:57 10° ESE
STARLINK-1109 3.7 16:55:51 17° WSW 16:58:56 64° NW 17:03:05 10° NE
STARLINK-1214 3.2 16:57:34 24° W 16:59:15 53° SSW 17:02:24 10° ESE
STARLINK-1245 3.2 16:57:58 23° W 16:59:41 53° SSW 17:02:50 10° ESE
STARLINK-1238 3.2 16:58:26 23° W 17:00:09 52° SSW 17:03:18 10° ESE
Cosmos 1655 Rocket 4.3 16:54:07 10° SSW 17:00:15 47° W 17:06:21 10° NNW
STARLINK-1205 3.3 16:59:17 22° W 17:01:02 52° SSW 17:04:11 10° ESE
STARLINK-1123 4.2 16:57:35 13° WSW 17:01:11 54° SSE 17:05:19 10° E
STARLINK-1204 3.3 16:59:42 22° W 17:01:29 51° SSW 17:04:39 10° ESE
STARLINK-1246 3.7 16:58:32 16° WNW 17:01:52 87° NE 17:06:07 10° ESE
H-2A R/B 2.7 16:58:48 10° N 17:02:45 75° WNW 17:06:44 10° SSW
STARLINK-1091 3.8 17:00:36 16° WSW 17:03:52 59° NW 17:08:00 10° NE
Okean-O 4.4 16:59:50 10° NE 17:03:55 36° ESE 17:08:04 10° S
STARLINK-1097 4.2 17:02:20 12° WSW 17:06:09 56° SSE 17:10:18 10° E
Cosmos 1356 3.5 17:02:52 10° N 17:06:21 85° ENE 17:09:55 10° SSE
STARLINK-1224 3.6 17:03:19 14° WNW 17:06:51 88° SSW 17:11:06 10° ESE
STARLINK-1072 3.9 17:05:25 14° WSW 17:08:53 54° NW 17:12:59 10° NE
Cosmos 1689 Rocket 2.1 17:05:59 10° S 17:09:03 61° WSW 17:12:04 10° NNW
STARLINK-1201 3.4 17:06:57 18° W 17:09:11 50° SSW 17:12:26 10° ESE
Cosmos 1707 2.7 17:05:28 10° SSW 17:09:25 69° W 17:13:16 10° N
Meteor 2-9 Rocket 4.5 17:04:06 10° NNW 17:09:34 47° WSW 17:14:57 10° S
Okean 1 Rocket 3.8 17:06:29 10° N 17:10:56 60° E 17:15:27 10° SSE
STARLINK-1099 4.1 17:07:08 11° WSW 17:11:09 59° SSE 17:15:18 10° ENE
Cosmos 2084 4.1 17:08:05 15° WNW 17:11:18 39° SW 17:15:22 10° SSE
STARLINK-1225 3.6 17:08:07 13° WNW 17:11:51 83° SSW 17:16:06 10° ESE
SL-8 R/B 3.8 17:08:30 14° W 17:12:41 77° S 17:17:35 10° E
Cosmos 371 Rocket 3.3 17:08:17 10° SSW 17:13:15 78° WNW 17:18:07 10° NNE
STARLINK-1096 4.0 17:10:13 13° WSW 17:13:52 50° NW 17:17:56 10° NE
Cosmos 1025 Rocket 3.2 17:09:33 10° SSW 17:13:53 52° W 17:18:10 10° N
Cosmos 1943 Rocket 4.4 17:09:21 10° S 17:13:56 24° SE 17:18:27 10° E
CZ-4 R/B 3.8 17:10:36 10° NE 17:14:17 28° ESE 17:17:58 10° S
CZ-4B R/B 2.3 17:12:04 10° S 17:14:57 28° WSW 17:17:51 10° NW
STARLINK-1104 4.0 17:11:56 10° WSW 17:16:08 62° SSE 17:20:19 10° ENE
STARLINK-1230 3.7 17:12:54 12° WNW 17:16:50 79° SSW 17:21:05 10° ESE
GP-B 3.4 17:13:51 10° N 17:18:20 76° E 17:22:53 10° S
STARLINK-1079 4.1 17:14:58 11° WSW 17:18:47 46° NW 17:22:48 10° NE
Cosmos 1975 4.2 17:15:48 10° WNW 17:18:56 20° WSW 17:22:06 10° SSW
Cosmos 1271 Rocket 2.8 17:16:50 10° SSW 17:20:56 83° W 17:25:00 10° N
STARLINK-1144 4.0 17:16:55 10° WSW 17:21:09 65° SSE 17:25:20 10° ENE
STARLINK-1243 3.7 17:17:39 10° WNW 17:21:47 74° SSW 17:26:02 10° ESE
STARLINK-1116 4.2 17:19:45 10° WSW 17:23:45 43° NW 17:27:43 10° NNE
Cosmos 2219 Rocket 2.8 17:20:08 10° WNW 17:25:23 38° SW 17:30:43 10° SSE
Cosmos 1536 Rocket 4.0 17:21:11 10° SSW 17:25:28 43° W 17:29:43 10° NNW
STARLINK-1103 3.9 17:21:53 10° WSW 17:26:07 68° SSE 17:30:19 10° ENE
Helios 1A Rocket 3.2 17:22:30 10° N 17:26:30 48° W 17:30:36 10° SSW
STARLINK-1236 3.7 17:22:35 10° WNW 17:26:48 70° SSW 17:31:02 10° ESE
Abrixas rocket 2.9 17:25:09 10° NW 17:28:03 44° NNE 17:30:58 10° E
STARLINK-1101 3.9 17:26:54 10° WSW 17:31:08 72° SSE 17:35:21 10° ENE
STARLINK-1094 4.4 17:29:44 10° WSW 17:33:38 37° NW 17:37:30 10° NNE
NOAA 12 4.1 17:29:28 10° N 17:34:45 72° WNW 17:40:07 10° SSW
STARLINK-1102 3.8 17:31:51 10° WSW 17:36:06 76° SSE 17:40:18 10° ENE
STARLINK-1269 3.8 17:32:36 10° WNW 17:36:48 63° SSW 17:41:00 10° ESE
COSMOS 2428 3.4 17:31:41 10° WNW 17:36:55 35° SW 17:42:12 10° SSE
STARLINK-1117 4.5 17:34:47 10° WSW 17:38:37 34° NW 17:42:25 10° NNE
STARLINK-1111 3.8 17:36:49 10° WSW 17:41:05 81° SSE 17:45:17 10° ENE
FengYun 1-2 T 4.4 17:36:11 10° NNE 17:41:54 87° ESE 17:47:40 10° SSW
